[[{"header":{"parameterUnit":"m.s-1","parameterCategory":1,"la1":30.2991,"la2":30.254,"lo1":-89.0895,"lo2":-89.0444,"dy":0.0017,"dx":0.0017,"nx":28,"ny":28,"refTime":"2024-11-27T09:00:00:Z","depth":0,"parameterNumber":2,"parameterNumberName":"U-component_of_WINDS"},"data":[0,0,0,0,0,0,0,0,0,0,0,0,0,0,0,0,0,0,0,0,0,0,0,0,0,0,0,0,0,0,0,0,0,0,0,0,0,0,0,0,0,0,0,0,0,0,0,0,0,0,0,0,0,0,0,0,0,0,-1.6119,-1.612,0,-1.6185,-1.6185,-1.6186,-1.6157,-1.6156,-1.6154,-1.6152,-1.622,-1.6223,-1.6227,0,0,0,0,0,0,0,0,0,0,0,0,0,-1.5969,-1.5972,-1.6119,-1.612,-1.6121,-1.6184,-1.6185,-1.6186,-1.6157,-1.6155,-1.6153,-1.6152,-1.6219,-1.6223,-1.6227,0,0,0,0,0,0,0,0,0,0,0,0,0,-1.6035,-1.5973,-1.6119,-1.6114,-1.6114,-1.6184,-1.6185,-1.6186,-1.6158,-1.6155,-1.6153,-1.6151,-1.6218,-1.6223,-1.6228,-1.6307,0,0,-1.6243,-1.6245,0,0,0,0,0,0,0,0,-1.6031,-1.604,-1.6114,-1.6115,-1.6115,-1.616,-1.6157,-1.6227,-1.6158,-1.6141,-1.6152,-1.615,-1.6202,-1.6208,-1.6226,-1.631,-1.6313,-1.6243,-1.6246,-1.6248,-1.625,0,0,0,0,0,0,0,-1.6026,-1.6037,-1.6145,-1.6115,-1.6116,-1.6109,-1.6115,-1.617,-1.6185,-1.6143,-1.6141,-1.6149,-1.6202,-1.6221,-1.6227,-1.6314,-1.6243,-1.6247,-1.625,-1.6252,-1.6465,-1.6467,0,0,0,0,0,0,-1.6022,-1.6033,-1.6143,-1.6147,-1.6066,-1.6113,-1.6121,-1.6148,-1.6184,-1.6187,-1.6151,-1.6147,-1.6214,-1.6222,-1.623,-1.6325,-1.6248,-1.6253,-1.6256,-1.6462,-1.6465,-1.6468,0,0,0,0,0,0,-1.6019,-1.6032,-1.614,-1.609,-1.6103,-1.6118,-1.615,-1.6151,-1.617,-1.619,-1.6192,-1.6168,-1.6212,-1.6223,-1.6287,-1.6326,-1.6255,-1.626,-1.6459,-1.6463,-1.6467,-1.6515,0,0,0,0,0,0,-1.6015,-1.6031,-1.6061,-1.6091,-1.6106,-1.6197,-1.6152,-1.6154,-1.6178,-1.6174,-1.6207,-1.621,-1.6211,-1.628,-1.6292,-1.6332,-1.6264,-1.6456,-1.6461,-1.6465,-1.651,-1.652,-1.6529,0,0,0,0,0,-1.6009,-1.6073,-1.6063,-1.6076,-1.6144,-1.62,-1.6208,-1.6209,-1.6182,-1.6212,-1.6225,-1.6209,-1.632,-1.6287,-1.6301,-1.6342,-1.6453,-1.6459,-1.6465,-1.6506,-1.6518,-1.6529,0,0,0,0,0,0,-1.6048,-1.6076,-1.6066,-1.6141,-1.6168,-1.6195,-1.6234,-1.6222,-1.6258,-1.6252,-1.6251,-1.6259,-1.6326,-1.634,-1.6303,-1.642,-1.6382,-1.6391,-1.6409,-1.6421,-1.643,-1.6426,-1.6268,0,0,0,0,0,-1.6065,-1.6108,-1.613,-1.6194,-1.6208,-1.6218,-1.6243,-1.624,-1.6269,-1.628,-1.6298,-1.6326,-1.6367,-1.6394,-1.6433,-1.6511,-1.6518,-1.6546,-1.6556,-1.6563,-1.6572,-1.6614,-1.6627,-1.6488,-1.6488,-1.6488,0,0,-1.6102,-1.6122,-1.6149,-1.6202,-1.6223,-1.6267,-1.6228,-1.6277,-1.631,-1.6288,-1.635,-1.6364,-1.6395,-1.6467,-1.6499,-1.6481,-1.6611,-1.6571,-1.6577,-1.6581,-1.6621,-1.6634,-1.6646,-1.6492,-1.6491,-1.6491,0,0,-1.619,-1.621,-1.6265,-1.6286,-1.6318,-1.6324,-1.6337,-1.6366,-1.6374,-1.6436,-1.642,-1.6459,-1.653,-1.6553,-1.6574,-1.6669,-1.6656,-1.6682,-1.6732,-1.6773,-1.6784,-1.6793,-1.6828,-1.684,-1.669,-1.669,-1.669,0,-1.6232,-1.6298,-1.6295,-1.6345,-1.6369,-1.6349,-1.6405,-1.6426,-1.6469,-1.6486,-1.6464,-1.6552,-1.6572,-1.6649,-1.6672,-1.6689,-1.6704,-1.6679,-1.6782,-1.6792,-1.6801,-1.6834,-1.6847,-1.6693,-1.6693,-1.6692,-1.6692,0,-1.6347,-1.6393,-1.6433,-1.6475,-1.6503,-1.6556,-1.6561,-1.659,-1.6584,-1.6593,-1.6656,-1.6678,-1.6722,-1.6739,-1.6735,-1.6815,-1.6803,-1.6782,-1.6744,-1.6817,-1.6848,-1.6861,-1.6697,-1.6696,-1.6695,-1.6694,0,0,-1.6464,-1.6502,-1.6517,-1.6536,-1.6568,-1.6604,-1.6655,-1.6697,-1.6721,-1.6751,-1.6794,-1.6854,-1.6834,-1.6858,-1.6856,-1.6891,-1.6966,-1.6866,-1.6867,-1.6884,-1.7056,-1.7073,-1.7087,-1.6956,-1.6959,-1.6961,-1.7054,0,-1.6556,-1.6646,-1.6644,-1.6728,-1.677,-1.6751,-1.6796,-1.6821,-1.683,-1.6867,-1.6876,-1.6919,-1.6889,-1.6903,-1.6938,-1.695,-1.7001,-1.6943,-1.6997,-1.6999,-1.6991,-1.7103,-1.7121,-1.7208,-1.7066,-1.7068,-1.7069,0,-1.6676,-1.6709,-1.6796,-1.6822,-1.684,-1.688,-1.6918,-1.6953,-1.698,-1.6984,-1.701,-1.7001,-1.7053,-1.7013,-1.7084,-1.7045,-1.7066,-1.7075,-1.7078,-1.7085,-1.704,-1.7114,-1.7236,-1.725,-1.7088,-1.7087,-1.7085,0,-1.6753,-1.682,-1.6881,-1.6897,-1.6928,-1.6957,-1.6971,-1.6996,-1.7021,-1.7053,-1.7069,-1.7108,-1.7129,-1.7159,-1.716,-1.7131,-1.7233,-1.7192,-1.7237,-1.7238,-1.7261,-1.726,-1.739,-1.7273,-1.7273,-1.7273,-1.7272,0,-1.6857,-1.6911,-1.6916,-1.6954,-1.7014,-1.7011,-1.7071,-1.7082,-1.7104,-1.7144,-1.7129,-1.7167,-1.7166,-1.7204,-1.7206,-1.7265,-1.7274,-1.7279,-1.7279,-1.7281,-1.728,-1.7296,-1.7291,-1.7276,-1.7275,-1.7275,-1.7274,0,-1.6955,-1.696,-1.7025,-1.7049,-1.7056,-1.7099,-1.712,-1.7155,-1.7162,-1.7212,-1.7223,-1.7234,-1.7277,-1.7282,-1.7333,-1.7334,-1.7405,-1.7398,-1.7396,-1.7395,-1.7441,-1.7437,-1.7586,-1.7606,-1.7475,-1.7477,-1.7478,0,-1.7021,-1.7063,-1.709,-1.7116,-1.7131,-1.7172,-1.7197,-1.7195,-1.7222,-1.7255,-1.7287,-1.7329,-1.7363,-1.7433,-1.7446,-1.7484,-1.7479,-1.7528,-1.7485,-1.7485,-1.748,-1.7478,-1.7483,-1.7537,-1.7539,-1.754,-1.7541,0,-1.7139,-1.7139,-1.7175,-1.7213,-1.7243,-1.7272,-1.7299,-1.7321,-1.7322,-1.7353,-1.7397,-1.7423,-1.7474,-1.7516,-1.7554,-1.7568,-1.7555,-1.7554,-1.7567,-1.757,-1.7568,-1.757,-1.742,-1.7551,-1.755,-1.755,-1.7549,-1.7549,-1.7224,-1.7259,-1.7284,-1.7325,-1.7345,-1.7371,-1.7406,-1.7416,-1.7453,-1.7494,-1.7491,-1.754,-1.7565,-1.7614,-1.7631,-1.7669,-1.7652,-1.7671,-1.7676,-1.768,-1.7685,-1.756,-1.7676,-1.7675,-1.7675,-1.7675,-1.7675,0,-1.7341,-1.7356,-1.7394,-1.7432,-1.7464,-1.7447,-1.7476,-1.7505,-1.7548,-1.7572,-1.7605,-1.7656,-1.7696,-1.771,-1.775,-1.7777,-1.7772,-1.7788,-1.7786,-1.779,-1.7698,-1.7683,-1.7791,-1.7791,-1.7791,-1.7791,-1.7791,-1.7791,-1.7406,-1.7466,-1.7469,-1.7538,-1.7552,-1.76,-1.7618,-1.7641,-1.7661,-1.7718,-1.7751,-1.776,-1.778,-1.782,-1.7856,-1.786,-1.7875,-1.7894,-1.7894,-1.7808,-1.7797,-1.7785,-1.7772,-1.7897,-1.7897,-1.7983,-1.7984,-1.7985]},{"header":{"parameterUnit":"m.s-1","parameterCategory":1,"la1":30.2991,"la2":30.254,"lo1":-89.0895,"lo2":-89.0444,"dy":0.0017,"dx":0.0017,"nx":28,"ny":28,"refTime":"2024-11-27T09:00:00:Z","depth":0,"parameterNumber":3,"parameterNumberName":"V-component_of_WINDS"},"data":[0,0,0,0,0,0,0,0,0,0,0,0,0,0,0,0,0,0,0,0,0,0,0,0,0,0,0,0,0,0,0,0,0,0,0,0,0,0,0,0,0,0,0,0,0,0,0,0,0,0,0,0,0,0,0,0,0,0,-7.1414,-7.1415,0,-7.1528,-7.1529,-7.1531,-7.1464,-7.146,-7.1457,-7.1454,-7.1565,-7.157,-7.1576,0,0,0,0,0,0,0,0,0,0,0,0,0,-7.1131,-7.1136,-7.1414,-7.1415,-7.1417,-7.1528,-7.1529,-7.1531,-7.1464,-7.146,-7.1456,-7.1453,-7.1563,-7.157,-7.1577,0,0,0,0,0,0,0,0,0,0,0,0,0,-7.125,-7.1138,-7.1413,-7.1397,-7.1396,-7.1528,-7.1529,-7.1531,-7.1465,-7.146,-7.1455,-7.1451,-7.156,-7.1569,-7.1578,-7.173,0,0,-7.1605,-7.1609,0,0,0,0,0,0,0,0,-7.1243,-7.1261,-7.1398,-7.1398,-7.1398,-7.1477,-7.147,-7.1598,-7.1466,-7.1439,-7.1454,-7.1448,-7.1539,-7.1549,-7.1581,-7.1735,-7.174,-7.1606,-7.1611,-7.1615,-7.1618,0,0,0,0,0,0,0,-7.1235,-7.1255,-7.1459,-7.14,-7.14,-7.1381,-7.1393,-7.1494,-7.1514,-7.1441,-7.1436,-7.1451,-7.1538,-7.1573,-7.1583,-7.1741,-7.1606,-7.1614,-7.1619,-7.1623,-7.2024,-7.2029,0,0,0,0,0,0,-7.1229,-7.1249,-7.1455,-7.1462,-7.1308,-7.139,-7.1403,-7.1456,-7.1513,-7.1517,-7.1455,-7.1447,-7.156,-7.1573,-7.1587,-7.1768,-7.1615,-7.1623,-7.1629,-7.2019,-7.2025,-7.2031,0,0,0,0,0,0,-7.1223,-7.1248,-7.145,-7.1354,-7.1379,-7.1401,-7.146,-7.1461,-7.1496,-7.1524,-7.1526,-7.1487,-7.1556,-7.1574,-7.1695,-7.1771,-7.1627,-7.1636,-7.2012,-7.2021,-7.2028,-7.2132,0,0,0,0,0,0,-7.1216,-7.1247,-7.1306,-7.1356,-7.1384,-7.1559,-7.1465,-7.1467,-7.1512,-7.1503,-7.1555,-7.1559,-7.1554,-7.1682,-7.1704,-7.178,-7.1642,-7.2006,-7.2016,-7.2026,-7.2122,-7.2142,-7.216,0,0,0,0,0,-7.1206,-7.133,-7.131,-7.1335,-7.146,-7.1564,-7.1579,-7.1573,-7.1519,-7.1578,-7.1595,-7.1557,-7.1759,-7.1695,-7.1719,-7.1799,-7.2001,-7.2013,-7.2025,-7.2113,-7.2138,-7.216,0,0,0,0,0,0,-7.1285,-7.1336,-7.1314,-7.1459,-7.1508,-7.1552,-7.1626,-7.16,-7.1664,-7.1653,-7.1641,-7.1653,-7.1779,-7.1801,-7.1728,-7.1949,-7.1871,-7.1888,-7.193,-7.1954,-7.1973,-7.1965,-7.165,0,0,0,0,0,-7.132,-7.1403,-7.1441,-7.1565,-7.1591,-7.1605,-7.165,-7.1641,-7.169,-7.171,-7.1737,-7.1785,-7.1858,-7.1907,-7.1977,-7.2124,-7.2134,-7.2191,-7.2211,-7.2226,-7.2241,-7.232,-7.2346,-7.207,-7.207,-7.207,0,0,-7.1392,-7.143,-7.1482,-7.1582,-7.1619,-7.1703,-7.1623,-7.1714,-7.1776,-7.1723,-7.184,-7.1861,-7.1913,-7.2048,-7.2108,-7.207,-7.2319,-7.2241,-7.2254,-7.226,-7.2335,-7.2361,-7.2384,-7.2078,-7.2077,-7.2075,0,0,-7.1566,-7.1604,-7.1711,-7.175,-7.1808,-7.1816,-7.1842,-7.1891,-7.1903,-7.202,-7.1983,-7.2054,-7.2182,-7.2221,-7.2257,-7.2446,-7.2412,-7.2468,-7.2568,-7.2645,-7.2667,-7.2686,-7.2752,-7.2776,-7.2483,-7.2483,-7.2484,0,-7.1648,-7.1775,-7.1768,-7.1864,-7.1908,-7.1866,-7.1973,-7.2011,-7.2087,-7.2118,-7.2074,-7.2234,-7.2266,-7.2409,-7.2455,-7.2486,-7.2514,-7.2462,-7.2665,-7.2684,-7.2701,-7.2765,-7.279,-7.249,-7.2489,-7.2488,-7.2488,0,-7.1872,-7.1961,-7.2039,-7.2117,-7.217,-7.2271,-7.2277,-7.2331,-7.2318,-7.233,-7.2448,-7.2485,-7.2562,-7.2595,-7.2582,-7.2736,-7.271,-7.2666,-7.2588,-7.2734,-7.2793,-7.2818,-7.2499,-7.2497,-7.2495,-7.2493,0,0,-7.21,-7.2173,-7.2202,-7.2237,-7.2297,-7.2364,-7.2462,-7.2539,-7.2585,-7.2639,-7.2719,-7.2829,-7.2788,-7.283,-7.282,-7.2888,-7.3034,-7.2835,-7.2836,-7.287,-7.3204,-7.3237,-7.3266,-7.3012,-7.3017,-7.302,-7.32,0,-7.2277,-7.2451,-7.2448,-7.2608,-7.2689,-7.265,-7.2735,-7.278,-7.2794,-7.2863,-7.2877,-7.2955,-7.2896,-7.292,-7.2985,-7.3002,-7.3101,-7.2989,-7.3085,-7.3089,-7.3073,-7.3297,-7.3332,-7.3499,-7.3223,-7.3227,-7.323,0,-7.2508,-7.2572,-7.2741,-7.279,-7.2824,-7.29,-7.297,-7.3037,-7.3086,-7.3091,-7.3138,-7.3118,-7.3215,-7.3134,-7.3266,-7.3191,-7.3229,-7.3244,-7.325,-7.3258,-7.3168,-7.331,-7.3553,-7.3578,-7.3266,-7.3263,-7.3261,0,-7.2657,-7.2785,-7.2903,-7.2933,-7.2993,-7.3048,-7.3075,-7.312,-7.3166,-7.3226,-7.3255,-7.3325,-7.3363,-7.3417,-7.3415,-7.3357,-7.3549,-7.3468,-7.3554,-7.3554,-7.3596,-7.3594,-7.3848,-7.3622,-7.3622,-7.3621,-7.3621,0,-7.2855,-7.296,-7.2971,-7.3043,-7.3158,-7.3152,-7.3266,-7.3287,-7.3328,-7.3402,-7.3371,-7.3441,-7.3435,-7.3505,-7.3504,-7.3613,-7.363,-7.3636,-7.3634,-7.3638,-7.3638,-7.3663,-7.3651,-7.3628,-7.3626,-7.3625,-7.3624,0,-7.3041,-7.3053,-7.3178,-7.3225,-7.3239,-7.3322,-7.336,-7.3428,-7.3439,-7.3533,-7.3555,-7.3572,-7.3652,-7.3656,-7.3748,-7.3747,-7.388,-7.3865,-7.3864,-7.3861,-7.3947,-7.3939,-7.4227,-7.4264,-7.4014,-7.4016,-7.4018,0,-7.3167,-7.3247,-7.3303,-7.3352,-7.3383,-7.3461,-7.3509,-7.3505,-7.3555,-7.3617,-7.3677,-7.3755,-7.3817,-7.3947,-7.3966,-7.4036,-7.4023,-7.4119,-7.4033,-7.4034,-7.4023,-7.4019,-7.4026,-7.4135,-7.4138,-7.414,-7.4142,0,-7.339,-7.3391,-7.3462,-7.3536,-7.3594,-7.365,-7.3703,-7.3744,-7.3746,-7.3804,-7.3887,-7.3935,-7.403,-7.4107,-7.4175,-7.42,-7.4171,-7.4169,-7.4192,-7.4198,-7.4194,-7.4196,-7.3909,-7.4162,-7.416,-7.4159,-7.4158,-7.4157,-7.3549,-7.3618,-7.3669,-7.3748,-7.3788,-7.3838,-7.3904,-7.3924,-7.3994,-7.4073,-7.4065,-7.4157,-7.4203,-7.4292,-7.4322,-7.4392,-7.4359,-7.4393,-7.4402,-7.441,-7.4419,-7.4183,-7.4404,-7.4404,-7.4403,-7.4403,-7.4402,0,-7.3769,-7.38,-7.3874,-7.3949,-7.4012,-7.3982,-7.4038,-7.4091,-7.4174,-7.422,-7.4282,-7.4377,-7.4452,-7.4477,-7.4549,-7.46,-7.4588,-7.4619,-7.4615,-7.4621,-7.4445,-7.4418,-7.4627,-7.4627,-7.4627,-7.4627,-7.4627,-7.4627,-7.3892,-7.4007,-7.4015,-7.4149,-7.4177,-7.4269,-7.4304,-7.4349,-7.4386,-7.4494,-7.4557,-7.4574,-7.4611,-7.4685,-7.4752,-7.4757,-7.4784,-7.4821,-7.482,-7.4656,-7.4633,-7.4612,-7.4585,-7.4827,-7.4827,-7.499,-7.4991,-7.4992]}]]